Regional Weather Roundup
Issued by NWS

Home | Current Version | Previous Version | Text Only | Print | Product List | Glossary Off
Versions: 1 2 3 4 5 6 7 8 9 10 11 12 13 14 15 16 17 18 19 20 21 22 23 24 25 26 27 28 29 30 31 32 33 34 35 36 37 38 39 40 41 42 43 44 45 46 47 48 49 50

000
ASUS43 KFSD 271310
RWRSD

WEATHER ROUNDUP FOR SOUTH DAKOTA
NATIONAL WEATHER SERVICE SIOUX FALLS SD
700 AM CST TUE JAN 27 2015

NOTE: "FAIR" INDICATES FEW OR NO CLOUDS BELOW 12,000 FEET WITH NO
SIGNIFICANT WEATHER AND/OR OBSTRUCTIONS TO VISIBILITY.


SDZ001>005-009-010-012>017-271400-
NORTHWEST AND NORTH CENTRAL SOUTH DAKOTA

CITY           SKY/WX    TMP DP  RH WIND       PRES   REMARKS
BUFFALO          N/A     38  28  67 W9        29.85S
FAITH            N/A     38  29  70 SW9       29.90S
MOBRIDGE       CLEAR     31  28  89 SE7       29.91S WCI  24
$$

SDZ012>016-024>037-041>051-057-063-072>074-271400-
SOUTHWEST AND SOUTH CENTRAL SOUTH DAKOTA

CITY           SKY/WX    TMP DP  RH WIND       PRES   REMARKS
RAPID CTY ARPT CLEAR     40  25  55 W5        29.94S
PIERRE         PTCLDY    30  28  92 SE8       29.94R WCI  22
CUSTER         CLEAR     43  21  41 W6        30.06S
ELLSWORTH AFB  CLEAR     43  25  47 NW10      29.94R
PHILIP         PTCLDY    29  24  82 CALM      29.93S
PINE RIDGE     CLEAR     40  27  59 W5        30.00F
WINNER         FAIR      38  30  73 S10       29.95S
$$

SDZ004>011-016>023-039-040-271400-
NORTHEAST SOUTH DAKOTA

CITY           SKY/WX    TMP DP  RH WIND       PRES   REMARKS
ABERDEEN       PTCLDY    26  23  88 SE5       30.03R WCI  20
WATERTOWN      CLEAR     26  24  92 SE3       30.03S
SISSETON         N/A     29  29 100 S8        30.06R WCI  21
$$

SDZ017-020-022-023-036>040-048>070-271400-
SOUTHEAST SOUTH DAKOTA

CITY           SKY/WX    TMP DP  RH WIND       PRES   REMARKS
SIOUX FALLS    PTCLDY    24  22  91 NE3       30.07R FOG
HURON          CLEAR     27  26  96 SE6       30.03R WCI  20
CHAMBERLAIN    PTCLDY    32  30  91 SE9       29.97S WCI  24
MITCHELL       CLEAR     28  27  96 SE6       30.04R WCI  22
YANKTON        CLEAR     28  27  93 E3        30.07S
$$

ABBREVIATIONS USED IN REMARKS
   TC - TEMPERATURE IN CELSIUS
  WCI - WIND CHILL INDEX
   HX - HEAT INDEX
  VSB - VISIBILITY




USA.gov is the U.S. government's official web portal to all federal, state and local government web resources and services.